Glenwood, MN

7:39 AM CDT on March 29, 2017 (GMT -0500)
Glenwood Municipal

Weather History for KGHW - February, 2014

Change the Weather History Date:

Thursday, February 13, 2014

  Actual Average Record
Temperature  
Mean Temperature 14 °F -  
Max Temperature 30 °F 25 °F 62 °F (1997)
Min Temperature -2 °F 4 °F -26 °F (1951)
Degree Days  
Heating Degree Days 51    
Moisture  
Dew Point 6 °F    
Average Humidity 84    
Maximum Humidity 100    
Minimum Humidity 72    
Precipitation  
Precipitation 0.00 in - - ()
Sea Level Pressure  
Sea Level Pressure 29.58 in    
Wind  
Wind Speed 22 mph (West)    
Max Wind Speed 34 mph    
Max Gust Speed 44 mph    
Visibility 5 miles    
Events Snow    
Averages and records for this station are not official NWS values.
T = Trace of Precipitation, MM = Missing Value Source: NWS Daily Summary

Daily Weather History Graph

Daily Weather History Graph

Search for Another Location

Airport or City:

Trip Planner

Search our weather history database for the weather conditions in past years. The results will help you decide how hot, cold, wet, or windy it might be!

Date:

Astronomy

Feb. 13, 2014 Rise Set
Actual Time 7:26 AM CST 5:45 PM CST
Civil Twilight 6:55 AM CST 6:16 PM CST
Nautical Twilight 6:20 AM CST 6:50 PM CST
Astronomical Twilight 5:46 AM CST 7:25 PM CST
Moon 4:54 PM CST (2/13) 6:20 AM CST (2/13)
Length of Visible Light 11h 20m
Length of Day
10h 19m
Waxing Gibbous, 99% of the Moon is Illuminated
Feb 13
Waxing Gibbous
Feb 14
Full
Feb 22
Last Quarter
Mar 1
New
Mar 8
First Quarter

Hourly Weather History & Observations

Time (CST) Temp. Windchill Dew Point Humidity Pressure Visibility Wind Dir Wind Speed Gust Speed Precip Events Conditions
12:13 AM 15.8 °F -3.4 °F 15.8 °F 100% 29.57 in 2.5 mi SSE 26.5 mph - N/A   Scattered Clouds
12:34 AM 17.6 °F -0.3 °F 15.8 °F 93% 29.55 in 2.5 mi SSE 24.2 mph - N/A   Scattered Clouds
12:53 AM 17.6 °F -0.3 °F 15.8 °F 93% 29.54 in 3.0 mi SSE 24.2 mph 32.2 mph N/A   Mist
1:13 AM 17.6 °F -1.3 °F 15.8 °F 93% 29.52 in 0.8 mi SSE 27.6 mph 32.2 mph N/A Snow Snow
1:33 AM 17.6 °F -0.3 °F 15.8 °F 93% 29.50 in 0.8 mi SSE 24.2 mph - N/A Snow Light Snow
1:53 AM 19.4 °F 2.5 °F 17.6 °F 93% 29.47 in 1.2 mi SSE 23.0 mph 32.2 mph N/A Snow Light Snow
2:14 AM 19.4 °F 2.8 °F 17.6 °F 93% 29.45 in 1.5 mi SSE 21.9 mph - N/A Snow Light Snow
2:33 AM 19.4 °F 3.6 °F 17.6 °F 93% 29.44 in 2.0 mi SSE 19.6 mph 27.6 mph N/A   Mist
2:53 AM 21.2 °F 5.2 °F 17.6 °F 86% 29.42 in 2.5 mi SSE 21.9 mph 28.8 mph N/A   Scattered Clouds
3:13 AM 21.2 °F 5.2 °F 19.4 °F 93% 29.41 in 2.5 mi South 21.9 mph - N/A   Scattered Clouds
3:33 AM 21.2 °F 5.6 °F 19.4 °F 93% 29.40 in 2.5 mi South 20.7 mph 26.5 mph N/A   Scattered Clouds
3:54 AM 21.2 °F 6.0 °F 21.2 °F 100% 29.39 in 1.8 mi South 19.6 mph 25.3 mph N/A Snow Light Snow
4:13 AM 24.8 °F 9.6 °F 21.2 °F 86% 29.38 in 4.0 mi SSW 23.0 mph - N/A   Scattered Clouds
4:33 AM 23.0 °F 9.2 °F 19.4 °F 86% 29.37 in 7.0 mi South 17.3 mph - N/A   Scattered Clouds
4:54 AM 24.8 °F 11.1 °F 21.2 °F 86% 29.37 in 7.0 mi SSW 18.4 mph - N/A   Scattered Clouds
5:13 AM 24.8 °F 12.4 °F 21.2 °F 86% 29.36 in 7.0 mi SSW 15.0 mph - N/A   Mostly Cloudy
5:34 AM 24.8 °F 13.4 °F 21.2 °F 86% 29.35 in 10.0 mi SSW 12.7 mph - N/A   Mostly Cloudy
5:53 AM 24.8 °F 14.0 °F 21.2 °F 86% 29.35 in 10.0 mi SW 11.5 mph - N/A   Overcast
6:13 AM 26.6 °F 13.4 °F 23.0 °F 86% 29.35 in 10.0 mi WSW 18.4 mph 23.0 mph N/A   Overcast
6:34 AM 30.2 °F 14.9 °F 26.6 °F 86% 29.35 in 1.8 mi West 31.1 mph 36.8 mph N/A Snow Light Snow
6:53 AM 24.8 °F 7.6 °F 21.2 °F 86% 29.37 in 0.8 mi West 31.1 mph 42.6 mph N/A Snow Light Snow
7:13 AM 21.2 °F 2.7 °F 17.6 °F 86% 29.39 in 0.8 mi West 31.1 mph 40.3 mph N/A Snow Light Snow
7:33 AM 19.4 °F 1.8 °F 15.8 °F 86% 29.41 in 1.2 mi West 25.3 mph 40.3 mph N/A Snow Light Snow
7:53 AM 17.6 °F -1.0 °F 14.0 °F 86% 29.43 in 0.2 mi West 26.5 mph 36.8 mph N/A Snow Snow
8:13 AM 15.8 °F -3.4 °F 12.2 °F 86% 29.45 in 0.2 mi West 26.5 mph 40.3 mph N/A Snow Light Snow
8:33 AM 15.8 °F -4.4 °F 12.2 °F 86% 29.46 in 0.2 mi WNW 29.9 mph 34.5 mph N/A Snow Light Snow
8:53 AM 14.0 °F -5.8 °F 10.4 °F 86% 29.47 in 0.2 mi WNW 26.5 mph 36.8 mph N/A Snow Light Snow
9:14 AM 12.2 °F -10.2 °F 10.4 °F 92% 29.47 in 0.2 mi WNW 33.4 mph 43.7 mph N/A Snow Snow
9:33 AM 12.2 °F -10.5 °F 8.6 °F 85% 29.49 in 0.2 mi WNW 34.5 mph 43.7 mph N/A Snow Snow
9:53 AM 10.4 °F -11.4 °F 8.6 °F 92% 29.52 in 0.2 mi WNW 28.8 mph 41.4 mph N/A Snow Snow
10:14 AM 10.4 °F -12.0 °F 6.8 °F 85% 29.52 in 0.2 mi WNW 31.1 mph 41.4 mph N/A Snow Snow
10:33 AM 8.6 °F -14.1 °F 3.2 °F 79% 29.54 in 0.2 mi WNW 29.9 mph 39.1 mph N/A Snow Snow
10:53 AM 8.6 °F -13.8 °F 5.0 °F 85% 29.55 in 0.2 mi WNW 28.8 mph 40.3 mph N/A Snow Light Snow
11:13 AM 8.6 °F -13.1 °F 3.2 °F 79% 29.55 in 0.5 mi WNW 26.5 mph 35.7 mph N/A   Haze
11:33 AM 8.6 °F -12.7 °F 5.0 °F 85% 29.56 in 0.8 mi WNW 25.3 mph - N/A   Overcast
11:53 AM 10.4 °F -11.4 °F 5.0 °F 79% 29.57 in 0.8 mi WNW 28.8 mph 32.2 mph N/A   Haze
12:13 PM 10.4 °F -10.3 °F 5.0 °F 79% 29.58 in 0.8 mi WNW 25.3 mph 34.5 mph N/A   Haze
12:33 PM 8.6 °F -13.1 °F 3.2 °F 79% 29.59 in 0.8 mi WNW 26.5 mph 34.5 mph N/A   Haze
12:54 PM 8.6 °F -13.4 °F 3.2 °F 79% 29.60 in 0.8 mi WNW 27.6 mph 34.5 mph N/A   Haze
1:33 PM 8.6 °F -13.8 °F 1.4 °F 73% 29.62 in 1.0 mi WNW 28.8 mph 36.8 mph N/A   Haze
1:53 PM 6.8 °F -15.9 °F 1.4 °F 79% 29.63 in 0.8 mi WNW 27.6 mph - N/A   Haze
2:13 PM 6.8 °F -16.2 °F 1.4 °F 79% 29.64 in 0.8 mi WNW 28.8 mph 38.0 mph N/A   Haze
2:34 PM 6.8 °F -15.1 °F 1.4 °F 79% 29.65 in 1.8 mi WNW 25.3 mph 29.9 mph N/A   Haze
2:53 PM 6.8 °F -13.4 °F 1.4 °F 79% 29.65 in 3.0 mi WNW 20.7 mph - N/A   Haze
3:13 PM 6.8 °F -13.4 °F 1.4 °F 79% 29.65 in 2.5 mi WNW 20.7 mph 32.2 mph N/A   Haze
3:34 PM 6.8 °F -15.5 °F 1.4 °F 79% 29.66 in 2.5 mi WNW 26.5 mph 32.2 mph N/A   Haze
3:53 PM 6.8 °F -14.7 °F 1.4 °F 79% 29.68 in 7.0 mi WNW 24.2 mph - N/A   Clear
4:13 PM 6.8 °F -14.3 °F -0.4 °F 72% 29.68 in 7.0 mi WNW 23.0 mph - N/A   Clear
4:33 PM 6.8 °F -12.9 °F -0.4 °F 72% 29.69 in 7.0 mi WNW 19.6 mph - N/A   Clear
4:54 PM 5.0 °F -14.7 °F -0.4 °F 78% 29.70 in 10.0 mi WNW 18.4 mph 27.6 mph N/A   Clear
5:13 PM 3.2 °F -16.5 °F -2.2 °F 78% 29.70 in 10.0 mi WNW 17.3 mph - N/A   Clear
5:33 PM 3.2 °F -16.5 °F -2.2 °F 78% 29.70 in 10.0 mi WNW 17.3 mph - N/A   Clear
5:54 PM 1.4 °F -15.3 °F -2.2 °F 85% 29.72 in 10.0 mi WNW 11.5 mph - N/A   Clear
6:13 PM 1.4 °F -15.3 °F -2.2 °F 85% 29.73 in 10.0 mi WNW 11.5 mph - N/A   Clear
6:33 PM 1.4 °F -16.1 °F -4.0 °F 78% 29.72 in 10.0 mi WNW 12.7 mph - N/A   Clear
6:54 PM -0.4 °F -18.4 °F -4.0 °F 85% 29.73 in 10.0 mi WNW 12.7 mph - N/A   Clear
7:13 PM -0.4 °F -15.7 °F -5.8 °F 78% 29.74 in 10.0 mi WNW 9.2 mph - N/A   Clear
7:33 PM -0.4 °F -14.7 °F -5.8 °F 78% 29.75 in 10.0 mi West 8.1 mph - N/A   Clear
7:53 PM -2.2 °F -19.9 °F -5.8 °F 85% 29.74 in 10.0 mi WNW 11.5 mph - N/A   Clear
8:13 PM -2.2 °F -20.7 °F -5.8 °F 85% 29.74 in 10.0 mi WNW 12.7 mph - N/A   Clear
8:33 PM -2.2 °F -19.9 °F -5.8 °F 85% 29.75 in 10.0 mi WNW 11.5 mph - N/A   Clear
8:53 PM -2.2 °F -16.8 °F -5.8 °F 85% 29.74 in 10.0 mi WNW 8.1 mph - N/A   Clear
9:13 PM -2.2 °F -18.9 °F -5.8 °F 85% 29.75 in 10.0 mi WNW 10.4 mph - N/A   Clear
9:34 PM -0.4 °F -17.6 °F -5.8 °F 78% 29.76 in 10.0 mi WNW 11.5 mph - N/A   Clear
9:53 PM -0.4 °F -18.4 °F -5.8 °F 78% 29.75 in 10.0 mi WNW 12.7 mph - N/A   Clear
10:13 PM -0.4 °F -18.4 °F -5.8 °F 78% 29.75 in 10.0 mi WNW 12.7 mph - N/A   Clear
10:34 PM -0.4 °F -15.7 °F -5.8 °F 78% 29.74 in 10.0 mi NW 9.2 mph - N/A   Clear
10:53 PM -2.2 °F -16.8 °F -5.8 °F 85% 29.74 in 10.0 mi NNW 8.1 mph - N/A   Clear
11:13 PM -0.4 °F -13.4 °F -5.8 °F 78% 29.75 in 10.0 mi NW 6.9 mph - N/A   Clear
11:34 PM -2.2 °F -16.8 °F -5.8 °F 85% 29.76 in 10.0 mi WNW 8.1 mph - N/A   Clear
11:53 PM -2.2 °F -20.7 °F -5.8 °F 85% 29.77 in 10.0 mi WNW 12.7 mph - N/A   Clear